User: anonymous   Login
Location: Archemont
(49.1579°N, 1.7598°E)
Time: 23:33:42
(UTC+00:00)
Language:

IRIDIUM 103 - Orbit

View from above orbital plane
View from above orbital plane
View from above satellite
View from above satellite

Ground track
Ground track

The orbit data is extracted from the following two-line orbital elements,

1 41918U 17003B   23156.57734064  .00000257  00000-0  84739-4 0  9996
2 41918  86.4005 191.2766 0002592  86.3750 273.7742 14.34217760334475
Epoch (UTC): 05 June 2023 13:51:22
Eccentricity: 0.0002592
inclination: 86.4005°
perigee height: 776 km
apogee height: 779 km
right ascension of ascending node: 191.2766°
argument of perigee: 86.3750°
revolutions per day: 14.34217760
mean anomaly at epoch: 273.7742°
orbit number at epoch: 33447

The dashed part of the orbit path shows where the satellite is in the earth's shadow,  

DLR